Location: Muñotello
(40.5424°N, 5.0419°W)
Time: 22:41:37
(UTC+00:00)

Daily predictions for brighter satellites

Satellite Brightness Start Highest point End
(mag) Time Altitude Azimuth Time Altitude Azimuth Time Altitude Azimuth
SJ-11-01 4.3 17:18:14 10° SSE 17:22:53 87° ENE 17:27:33 10° NNW
Lacrosse 5 2.7 17:22:23 10° S 17:26:53 34° SE 17:31:26 10° ENE
Cosmos-2242 3.5 17:24:46 10° SSE 17:28:50 41° E 17:32:55 10° NNE
Cosmos 2151 3.3 17:26:35 10° NNW 17:30:50 70° W 17:35:03 10° S
Cosmos 2082 4.3 17:25:43 10° SW 17:31:13 57° WNW 17:36:46 10° NNE
Cosmos 2058 Rocket 3.8 17:27:26 10° SSW 17:31:48 57° W 17:36:09 10° N
CZ-2C R/B 3.1 17:32:22 10° SW 17:33:18 11° SSW 17:34:14 10° S
Lacrosse 4 Rocket 2.1 17:30:06 10° N 17:34:01 32° NE 17:37:48 10° ESE
COSMO-SKYMED 1 3.9 17:30:58 10° NE 17:34:12 20° E 17:37:24 10° SE
CZ-2D R/B 3.7 17:33:03 10° S 17:36:42 63° W 17:40:20 10° NNW
APEX 2.6 17:34:00 10° SSW 17:37:02 55° ESE 17:39:49 10° NE
Cosmos 2344 3.6 17:31:18 10° SSW 17:39:07 62° ESE 17:46:17 10° NE
Cosmos 2221 4.2 17:37:35 10° ESE 17:39:39 13° E 17:41:02 12° ENE
Cosmos 1812 2.7 17:38:22 10° S 17:41:57 54° E 17:45:33 10° NNE
Cosmos 1818 3.7 17:37:50 10° SSW 17:43:08 60° ESE 17:48:31 10° NE
USA 234 3.3 17:37:59 10° NE 17:44:31 71° SE 17:51:02 10° SW
USA 276 3.6 17:44:37 10° WNW 17:46:25 18° NNW 17:48:03 11° NNE
CZ-2C R/B 3.2 17:44:46 10° S 17:48:16 60° W 17:51:49 10° NNW
AQUARIUS 4.1 17:44:05 10° SSE 17:48:29 65° ENE 17:52:55 10° N
ERS-2 4.4 17:49:49 10° SSW 17:52:10 22° W 17:54:31 10° NW
H-2A R/B 3.3 17:53:45 10° SW 17:55:34 16° S 17:58:33 10° SE
[s.n.58448] 2.4 17:54:05 10° WNW 17:56:40 78° SSW 17:58:25 18° ESE
Cosmos 2263 Rocket 3.4 17:52:11 10° SW 17:57:22 40° WNW 18:02:37 10° N
Cosmos 1844 Rocket 3.1 17:52:14 10° S 17:57:23 41° ESE 18:02:02 13° NE
USA 307 2.6 17:54:56 10° NW 17:58:46 61° NE 18:02:21 11° ESE
[s.n.58449] 2.3 17:56:35 10° WNW 17:59:06 75° SSW 18:00:40 20° ESE
CORIOLIS 4.3 17:54:15 10° S 17:59:35 80° WSW 18:04:59 10° NNW
[s.n.58459] 2.5 17:57:55 10° WNW 18:00:30 74° SSW 18:02:07 20° ESE
[s.n.58458] 2.5 17:58:38 10° WNW 18:01:13 73° SSW 18:02:49 20° ESE
[s.n.58456] 2.5 17:59:28 10° WNW 18:02:03 72° SSW 18:03:37 21° ESE
[s.n.58447] 2.5 17:59:41 10° WNW 18:02:14 71° SSW 18:03:45 21° ESE
[s.n.58457] 2.5 18:00:14 10° WNW 18:02:49 71° SSW 18:04:21 21° ESE
Cosmos 1092 Rocket 4.1 17:57:08 10° SSE 18:03:01 51° E 18:08:55 10° NNE
Nadezhda 4 Rocket 4.0 17:56:52 10° S 18:03:01 84° W 18:09:11 10° N
[s.n.58455] 2.5 18:01:00 10° WNW 18:03:37 70° SSW 18:05:06 22° ESE
[s.n.58454] 2.5 18:01:47 10° WNW 18:04:23 69° SSW 18:05:51 22° ESE
Cosmos 1933 3.7 18:00:44 10° SSE 18:04:29 41° E 18:07:55 12° NNE
[s.n.58453] 2.6 18:02:34 10° WNW 18:05:11 68° SSW 18:06:36 23° ESE
[s.n.58452] 2.6 18:03:18 10° WNW 18:05:54 67° SSW 18:07:18 23° ESE
Cosmos 2227 4.3 18:00:09 10° SSW 18:05:55 82° WNW 18:11:42 10° NNE
[s.n.58451] 2.6 18:04:05 10° WNW 18:06:42 66° SSW 18:08:03 24° ESE
[s.n.58450] 2.6 18:04:51 10° WNW 18:07:27 66° SSW 18:08:47 25° SE
ADEOS 4.2 18:04:23 10° SE 18:09:00 33° ENE 18:13:38 10° N
[s.n.58446] 2.7 18:07:11 10° WNW 18:09:47 63° SSW 18:11:01 26° SE
Cosmos 1666 4.2 18:07:20 10° NNW 18:10:36 36° W 18:13:51 10° SSW
[s.n.58445] 2.7 18:07:59 10° WNW 18:10:36 62° SSW 18:11:48 27° SE
Cosmos 1140 Rocket 3.4 18:05:32 10° NNW 18:10:44 84° ENE 18:15:52 10° SSE
[s.n.58444] 2.7 18:08:46 10° WNW 18:11:23 61° SSW 18:12:33 27° SE
Meteor 1-20 Rocket 4.2 18:06:30 10° N 18:12:07 87° E 18:17:49 10° S
[s.n.58443] 2.8 18:09:31 10° WNW 18:12:08 61° SSW 18:13:16 28° SE
Cosmos 1624 Rocket 4.4 18:07:41 10° S 18:12:30 39° ESE 18:15:39 20° NE
[s.n.58442] 2.8 18:10:22 10° WNW 18:12:58 60° SSW 18:14:04 29° SE
[s.n.58441] 2.8 18:11:11 10° WNW 18:13:47 59° SSW 18:14:51 29° SE
[s.n.58440] 2.8 18:11:54 10° WNW 18:14:31 58° SSW 18:15:33 30° SE
BREEZE-M DEB (TANK) 3.5 18:13:52 10° NW 18:15:04 14° N 18:15:04 14° N
[s.n.58439] 2.9 18:12:43 10° WNW 18:15:20 57° SSW 18:16:20 31° SE
Meteor 1-31 Rocket 3.6 18:11:50 10° S 18:15:24 50° W 18:19:02 10° NNW
[s.n.58437] 2.9 18:13:29 10° WNW 18:16:06 56° SSW 18:17:05 31° SE
[s.n.58438] 2.9 18:14:16 10° WNW 18:16:53 56° SSW 18:17:50 32° SE
CBERS 1 LM4 rocket 4.3 18:14:00 10° SSE 18:18:45 61° ENE 18:23:25 10° N
USA 306 2.9 18:19:34 10° WNW 18:21:31 31° SW 18:22:14 24° S
SKYMED 2 3.5 18:18:08 10° NNE 18:22:29 69° ESE 18:26:48 10° S
Cosmos 1603 3.6 18:17:10 10° NNW 18:22:52 74° ENE 18:28:28 10° SSE
Cosmos 1428 Rocket 4.5 18:17:00 10° S 18:23:18 90° WSW 18:29:38 10° N
Cosmos 192 4.2 18:20:04 10° S 18:24:55 73° ESE 18:28:35 18° NNE
SL-08 R/B 3.3 18:25:44 19° NNE 18:28:55 55° E 18:33:28 10° S
USA 305 2.5 18:26:06 10° NW 18:29:57 89° SW 18:31:45 30° SE
Meteor 2-17 Rocket 4.4 18:25:24 10° S 18:31:33 86° E 18:37:42 10° N
RESURS DK-1 4.4 18:31:06 10° N 18:31:56 14° N 18:31:56 14° N
Cosmos 1782 3.0 18:30:42 10° SSW 18:34:34 68° W 18:38:16 11° N
CZ-4B R/B 3.7 18:30:54 10° S 18:35:59 72° WSW 18:40:58 10° NNW
SL-8 R/B 3.7 18:31:31 10° WNW 18:36:18 79° SSW 18:38:57 26° SE
Cosmos 1515 4.5 18:34:48 10° SSE 18:37:02 32° SE 18:37:02 32° SE
Helios 1A 4.0 18:36:09 10° N 18:40:07 45° WNW 18:44:03 10° SW
Cosmos 676 Rocket 4.4 18:35:15 10° N 18:40:05 38° ENE 18:40:05 38° ENE
NOAA 6 4.1 18:39:14 10° S 18:44:21 79° WSW 18:49:30 10° NNW
Cosmos 1943 4.2 18:41:11 10° NW 18:46:35 48° WSW 18:51:57 10° S
EO 1 Delta rocket 4.4 18:40:32 10° SSE 18:47:28 64° ENE 18:52:56 10° N
JB-3 4.2 18:46:16 35° N 18:47:49 80° WNW 18:51:35 10° SSW
CZ-4B DEB 4.3 18:53:03 44° ESE 18:54:06 50° ENE 18:59:27 10° N
ISS -1.1 18:52:40 10° W 18:55:09 19° SW 18:57:35 10° S
ATLAS 2AS CENTAUR R/B 2.8 18:48:35 10° NNW 18:55:15 50° NE 18:56:38 44° E
ATLAS CENTAUR R/B 3.6 18:50:08 10° NW 18:55:22 66° SW 19:05:38 10° SSE
Cosmos 407 Rocket 4.3 18:51:12 10° NNW 18:56:10 51° WSW 19:01:05 10° S
Cosmos 1241 Rocket 4.4 18:51:14 10° SSW 18:57:38 90° SSE 19:00:35 35° NNE
Radarsat Rocket 4.3 18:54:12 10° S 18:59:56 65° WSW 19:05:55 10° NNW
SL-4 R/B 4.1 18:57:37 10° S 18:58:06 13° S 18:58:06 13° S
Cosmos 220 Rocket 3.9 18:59:38 10° NNW 19:03:57 79° WSW 19:04:31 64° S
Cosmos 2056 Rocket 3.9 19:00:58 10° SSW 19:06:18 66° WNW 19:09:06 29° N
Cosmos 1844 4.2 19:03:34 10° SW 19:09:16 60° WNW 19:12:19 27° N
Lacrosse 5 2.7 19:04:58 10° WSW 19:09:46 42° NW 19:10:56 36° N
COSMOS 2455 2.7 19:03:55 10° SSW 19:09:50 65° ESE 19:10:15 63° E
COSMO-SKYMED 1 4.1 19:06:43 11° N 19:10:25 34° WNW 19:14:21 10° SW
Cosmos 1954 Rocket 3.8 19:05:41 10° NNW 19:10:58 85° ENE 19:11:51 62° SSE
Lacrosse 4 Rocket 3.8 19:08:49 10° NW 19:12:14 23° WSW 19:15:33 10° SSW
Timation 2 Rocket 4.4 19:06:26 10° SW 19:12:17 56° WNW 19:15:41 25° N
Cosmos 2221 3.4 19:12:31 10° SSW 19:16:35 45° W 19:17:46 35° NW
SME Rocket 4.1 19:17:24 10° SSE 19:22:37 84° WSW 19:30:44 10° NNW
Cosmos 1553 Rocket 4.0 19:20:23 10° N 19:26:41 76° W 19:32:50 10° S
USA 234 4.2 19:24:55 30° NNE 19:27:15 40° NNW 19:33:12 10° W
Meteor 2-6 Rocket 4.3 19:27:35 10° S 19:33:29 84° W 19:33:29 84° W
Cosmos 1844 Rocket 4.3 19:36:36 10° WSW 19:41:21 29° NW 19:43:44 21° NNW
ATLAS 2AS CENTAUR R/B 4.3 20:40:01 10° NW 20:44:07 28° W 20:44:07 28° W
